KUIPER-00166

Last updated on Mon Oct 20 2025 00:02:06 GMT+0000 (Coordinated Universal Time)

1 65779U 25217T 25292.31212376 .00058604 00000+0 16020-2 0 9999 2 65779 51.8727 327.4691 0003473 121.4273 238.7053 15.36811605 3675
UTC large
Height (km)
Speed (km/s)
/
Latitude / Longitude
Inclination (degrees)
Orbital Period (minutes)
Azimuth
Elevation
Range (km)
Doppler Factor

Next 0 passes for location: London (51.5072 / 0.1276)

Sorry there are no passes over London.